カタログに戻る

O3B MPOWER F09

運用中通信MEO
NORAD 64866·PAYLOAD·🇱🇺 Luxembourg

打ち上げ Jul 22, 2025 から Cape Canaveral Space Force Station

Loading…

次のパス (今後24時間)

TLE

最新Source: CelesTrak SupGP

元期: Sep 13, 2026, 19:00 UTC

1 64866C 25153A   26256.79166667  .00000000  00000+0  00000+0 0  2569
2 64866   0.0666 357.4721 0007325 187.5521 290.8079  5.00115410    18

AllMySatでO3B MPOWER F09をリアルタイム追跡

Download on the App Store